Location: Moscow
(38.3171°N, 79.0889°W)
Time: 02:23:18
(UTC+00:00)

Cosmos 1378 Rocket - Pass Details

Date: 07 November 2025
Orbit: 595 x 619 km, 82.5° (Epoch: 08 December)

Event Time Altitude Azimuth Distance (km) Brightness Sun altitude
Rises 22:33:08 0° 354° (N) 2,853 6.8 -5.1°
Reaches altitude 10° 22:35:21 10° 356° (N) 1,950 6.0 -5.5°
Maximum altitude 22:39:40 74° 82° (E) 630 3.5 -6.3°
Drops below altitude 10° 22:43:58 10° 168° (SSE) 1,949 6.2 -7.1°
Sets 22:46:11 0° 170° (S) 2,852 7.0 -7.5°
